Location: Zagreb
(45.8000°N, 16.0000°E)
Time: 03:08:17
(UTC+01:00)

S-56A Canister/Altair - Pass Details

Date: 07 October 2020
Orbit: 633 x 2499 km, 38.9° (Epoch: 25 October)

Event Time Altitude Azimuth Distance (km) Brightness Sun altitude
Rises 18:35:02 0° 283° (WNW) 6,178 13.9 -2.7°
Reaches altitude 10° 18:39:34 10° 276° (W) 5,155 13.6 -3.5°
Maximum altitude 18:52:15 36° 218° (SW) 3,155 11.1 -5.7°
Drops below altitude 10° 19:02:34 10° 157° (SSE) 4,183 11.1 -7.5°
Sets 19:05:51 0° 149° (SSE) 4,925 11.3 -8.1°
